Location: Ago
(8.4667°N, 4.4833°E)
Time: 23:02:54
(UTC+00:00)

Cosmos 2237 Rocket - Pass Details

Date: 18 September 2020
Orbit: 836 x 848 km, 71.0° (Epoch: 20 October)

Event Time Altitude Azimuth Distance (km) Brightness Sun altitude
Rises 17:49:25 0° 336° (NNW) 3,374 5.7 -3.1°
Reaches altitude 10° 17:51:53 10° 332° (NNW) 2,442 5.1 -3.7°
Maximum altitude 17:57:20 54° 255° (WSW) 1,006 3.1 -5.1°
Drops below altitude 10° 18:02:48 10° 179° (S) 2,450 4.6 -6.4°
Sets 18:05:18 0° 174° (S) 3,387 5.3 -7.0°
